This is the latest recevied weather packets stored in our database for station/object HB9HUT-13. If no packets are shown the sender has not sent any weather packets the latest 10 day(s).
| Time | Temp. | Humidity | Pressure | Rain* | Wind** | Luminosity | Snow |
|---|---|---|---|---|---|---|---|
| 1777714527 | 23.89° C | 43% | 852.3 hPa | - | - | - | - |
| 1777713624 | 21.67° C | 43% | 852.4 hPa | - | - | - | - |
| 1777713624 | 21.67° C | 43% | 852.4 hPa | - | - | - | - |
| 1777712721 | 21.67° C | 44% | 852.5 hPa | - | - | - | - |
| 1777711818 | 21.67° C | 43% | 852.5 hPa | - | - | - | - |
| 1777710915 | 21.11° C | 46% | 852.5 hPa | - | - | - | - |
| 1777710012 | 21.11° C | 48% | 852.5 hPa | - | - | - | - |
| 1777709109 | 20.56° C | 49% | 852.6 hPa | - | - | - | - |
| 1777709109 | 20.56° C | 49% | 852.6 hPa | - | - | - | - |
| 1777708206 | 21.11° C | 43% | 852.5 hPa | - | - | - | - |
| 1777708206 | 21.11° C | 43% | 852.5 hPa | - | - | - | - |
| 1777707303 | 20° C | 43% | 852.6 hPa | - | - | - | - |
| 1777706400 | 18.89° C | 43% | 852.6 hPa | - | - | - | - |
| 1777706400 | 18.89° C | 43% | 852.6 hPa | - | - | - | - |
| 1777705497 | 17.22° C | 44% | 852.6 hPa | - | - | - | - |
| 1777705497 | 17.22° C | 44% | 852.6 hPa | - | - | - | - |
| 1777704594 | 16.11° C | 44% | 852.6 hPa | - | - | - | - |
| 1777704594 | 16.11° C | 44% | 852.6 hPa | - | - | - | - |
| 1777703692 | 15.56° C | 45% | 852.7 hPa | - | - | - | - |
| 1777703691 | 15.56° C | 45% | 852.7 hPa | - | - | - | - |
| 1777702788 | 14.44° C | 45% | 852.6 hPa | - | - | - | - |
| 1777702788 | 14.44° C | 45% | 852.6 hPa | - | - | - | - |
| 1777701885 | 13.33° C | 46% | 852.6 hPa | - | - | - | - |
| 1777701885 | 13.33° C | 46% | 852.6 hPa | - | - | - | - |
| 1777700982 | 12.22° C | 47% | 852.7 hPa | - | - | - | - |
* Rain since midnight (hover to see other rain measurements)
** Current wind speed in m/s (hover to see current wind gust speed)